Regional Weather Roundup
Issued by NWS

Home | Current Version | Previous Version | Graphics & Text | Print | Product List | Glossary On
Versions: 1 2 3 4 5 6 7 8 9 10 11 12 13 14 15 16 17 18 19 20 21 22 23 24 25 26 27 28 29 30 31 32 33 34 35 36 37 38 39 40 41 42 43 44 45 46 47 48 49 50
000
ASUS43 KLMK 191902
RWRKY
KENTUCKY REGIONAL WEATHER ROUNDUP
NATIONAL WEATHER SERVICE LOUISVILLE KY
200 PM EST SUN NOV 19 2017

NOTE "FAIR" INDICATES FEW OR NO CLOUDS BELOW 12,000 FEET
WITH NO SIGNIFICANT WEATHER AND/OR OBSTRUCTIONS TO VISIBILITY.

KYZ001>023-026-027-061>063-070>075-192000-
WESTERN AND SOUTH CENTRAL KENTUCKY

CITY           SKY/WX    TMP DP  RH WIND       PRES   REMARKS
PADUCAH        SUNNY     44  23  43 NW7       30.18F
HENDERSON      SUNNY     41  22  46 W16       30.17S
OWENSBORO      SUNNY     41  24  51 NW13      30.15F
HOPKINSVILLE   SUNNY     43  22  43 NW9       30.15F
BOWLING GREEN  SUNNY     43  27  53 W12       30.14F
GLASGOW        NOT AVBL
$$

KYZ024-025-028>034-038-045-046-053-192000-
NORTH CENTRAL KENTUCKY

CITY           SKY/WX    TMP DP  RH WIND       PRES   REMARKS
LOUISVILLE/SDF PTSUNNY   40  28  62 W13       30.09F WCI  32
LOUISVILLE/LOU CLOUDY    40  29  64 W10       30.09F WCI  33
FORT KNOX      PTSUNNY   38  27  63 W14       30.08F WCI  30
$$

KYZ035>037-039>044-047>052-055>060-089>105-192000-
NORTHEAST KENTUCKY

CITY           SKY/WX    TMP DP  RH WIND       PRES   REMARKS
LEXINGTON      CLOUDY    38  31  76 W10G21    30.05S WCI  31
COVINGTON      CLOUDY    37  27  67 W16G22    30.02S WCI  28
FRANKFORT      CLOUDY    38  28  67 W8G20     30.05F WCI  32
$$

KYZ054-064>069-076>088-106>120-192000-
SOUTHEAST KENTUCKY

CITY           SKY/WX    TMP DP  RH WIND       PRES   REMARKS
JACKSON        CLOUDY    39  31  72 W7        30.01F WCI  34
LONDON         CLOUDY    40  29  64 W14G22    30.05S WCI  32
SOMERSET       NOT AVBL
MIDDLESBORO    CLOUDY    43  32  65 NW8       30.06F
MONTICELLO     CLOUDY    41  31  67 W20G25    30.10F
$$





USA.gov is the U.S. government's official web portal to all federal, state and local government web resources and services.